When you browse on this site, cookies collect data to enhance your experience and personalize the content and advertising you see.
Visit our Privacy Policy to learn more. By continuing to use the site, you agree to this use of cookies and data.
EN

Hourly Weather Abaújszántó

Today, 24 September, Thursday

Time Temperature Precipitation Wind Pressure Humidity
00:00 +19°C° 0.1 mm 1 mps 739 mmHg 67%
01:00 +16°C° 0 mm 0 mps 739 mmHg 73%
02:00 +15°C° 0 mm 0 mps 739 mmHg 76%
03:00 +15°C° 0 mm 0 mps 739 mmHg 79%
04:00 +15°C° 0 mm 0 mps 739 mmHg 82%
05:00 +16°C° 0.2 mm 1 mps 739 mmHg 80%
06:00 +18°C° 0.2 mm 1 mps 739 mmHg 79%
07:00 +19°C° 0 mm 1 mps 739 mmHg 76%
08:00 +20°C° 0.1 mm 1 mps 739 mmHg 70%
09:00 +21°C° 0.1 mm 2 mps 739 mmHg 64%
10:00 +24°C° 0.1 mm 2 mps 740 mmHg 57%
11:00 +25°C° 0 mm 3 mps 740 mmHg 53%
12:00 +26°C° 0 mm 3 mps 740 mmHg 48%
13:00 +27°C° 0 mm 4 mps 739 mmHg 43%
14:00 +26°C° 0 mm 3 mps 739 mmHg 44%
15:00 +26°C° 0 mm 3 mps 739 mmHg 45%
16:00 +25°C° 0 mm 3 mps 739 mmHg 47%
17:00 +24°C° 0 mm 2 mps 739 mmHg 52%
18:00 +22°C° 0 mm 1 mps 739 mmHg 58%
19:00 +20°C° 0 mm 1 mps 739 mmHg 64%
20:00 +20°C° 0 mm 1 mps 739 mmHg 66%
21:00 +17°C° 0 mm 0 mps 739 mmHg 67%
22:00 +17°C° 0 mm 0 mps 739 mmHg 69%
23:00 +16°C° 0 mm 0 mps 739 mmHg 71%

Tomorrow, 25 September, Friday

Time Temperature Precipitation Wind Pressure Humidity
00:00 +16°C° 0 mm 0 mps 738 mmHg 72%
01:00 +16°C° 0 mm 0 mps 738 mmHg 74%
02:00 +15°C° 0 mm 0 mps 738 mmHg 75%
03:00 +16°C° 0 mm 1 mps 737 mmHg 77%
04:00 +16°C° 0 mm 1 mps 737 mmHg 79%
05:00 +16°C° 0 mm 1 mps 737 mmHg 77%
06:00 +18°C° 0 mm 1 mps 736 mmHg 74%
07:00 +17°C° 0 mm 2 mps 736 mmHg 71%
08:00 +18°C° 0.1 mm 2 mps 735 mmHg 67%
09:00 +20°C° 0.1 mm 2 mps 735 mmHg 63%
10:00 +21°C° 0.1 mm 3 mps 735 mmHg 58%
11:00 +22°C° 0 mm 4 mps 734 mmHg 54%
12:00 +23°C° 0 mm 4 mps 734 mmHg 49%
13:00 +26°C° 0 mm 5 mps 734 mmHg 45%
14:00 +23°C° 0.1 mm 5 mps 733 mmHg 55%
15:00 +21°C° 0.1 mm 4 mps 732 mmHg 66%
16:00 +19°C° 0.1 mm 3 mps 732 mmHg 77%
17:00 +18°C° 0.2 mm 3 mps 732 mmHg 80%
18:00 +18°C° 0.2 mm 2 mps 732 mmHg 84%
19:00 +18°C° 0.2 mm 1 mps 732 mmHg 87%
20:00 +18°C° 0.2 mm 1 mps 731 mmHg 87%
21:00 +17°C° 0.2 mm 2 mps 731 mmHg 87%
22:00 +17°C° 0.2 mm 2 mps 731 mmHg 87%
23:00 +17°C° 0.4 mm 2 mps 730 mmHg 89%

Day after tomorrow, 26 September, Saturday

Time Temperature Precipitation Wind Pressure Humidity
00:00 +17°C° 0.4 mm 2 mps 729 mmHg 91%
01:00 +16°C° 0.4 mm 3 mps 729 mmHg 92%
02:00 +16°C° 0.3 mm 3 mps 728 mmHg 91%
03:00 +16°C° 0.3 mm 3 mps 728 mmHg 90%
04:00 +17°C° 0.3 mm 3 mps 727 mmHg 89%
05:00 +17°C° 1.6 mm 3 mps 727 mmHg 91%
06:00 +16°C° 1.6 mm 3 mps 727 mmHg 93%
07:00 +16°C° 1.6 mm 3 mps 727 mmHg 95%
08:00 +16°C° 2.6 mm 3 mps 728 mmHg 93%
09:00 +16°C° 2.6 mm 3 mps 728 mmHg 92%
10:00 +16°C° 2.6 mm 3 mps 729 mmHg 91%
11:00 +16°C° 1.5 mm 2 mps 729 mmHg 88%
12:00 +16°C° 1.5 mm 1 mps 729 mmHg 85%
13:00 +16°C° 1.5 mm 1 mps 729 mmHg 82%
14:00 +16°C° 0.2 mm 1 mps 729 mmHg 84%
15:00 +16°C° 0.2 mm 1 mps 729 mmHg 86%
16:00 +15°C° 0.2 mm 2 mps 729 mmHg 88%
17:00 +15°C° 0.3 mm 1 mps 729 mmHg 90%
18:00 +14°C° 0.3 mm 1 mps 729 mmHg 93%
19:00 +14°C° 0.3 mm 1 mps 729 mmHg 95%
20:00 +14°C° 0.2 mm 1 mps 729 mmHg 95%
21:00 +14°C° 0.2 mm 1 mps 729 mmHg 95%
22:00 +14°C° 0.2 mm 1 mps 729 mmHg 95%
23:00 +14°C° 0.7 mm 2 mps 728 mmHg 94%

27 September, Sunday

Time Temperature Precipitation Wind Pressure Humidity
00:00 +12°C° 0.7 mm 3 mps 728 mmHg 93%
01:00 +12°C° 0.7 mm 4 mps 727 mmHg 93%
02:00 +12°C° 3.3 mm 4 mps 727 mmHg 93%
03:00 +12°C° 3.3 mm 4 mps 727 mmHg 93%
04:00 +10°C° 3.3 mm 5 mps 727 mmHg 93%
05:00 +10°C° 1.8 mm 5 mps 728 mmHg 92%
06:00 +9°C° 1.8 mm 5 mps 728 mmHg 91%
07:00 +10°C° 1.8 mm 4 mps 729 mmHg 91%
08:00 +9°C° 0.7 mm 5 mps 730 mmHg 88%
09:00 +9°C° 0.7 mm 6 mps 731 mmHg 86%
10:00 +9°C° 0.7 mm 6 mps 732 mmHg 83%
11:00 +9°C° 0.4 mm 6 mps 732 mmHg 82%
12:00 +10°C° 0.4 mm 7 mps 733 mmHg 80%
13:00 +10°C° 0.4 mm 7 mps 734 mmHg 79%
14:00 +10°C° 0.2 mm 6 mps 735 mmHg 78%
15:00 +10°C° 0.2 mm 6 mps 735 mmHg 77%
16:00 +10°C° 0.2 mm 5 mps 736 mmHg 77%
17:00 +9°C° 0 mm 5 mps 736 mmHg 78%
18:00 +10°C° 0 mm 4 mps 737 mmHg 78%
19:00 +10°C° 0 mm 3 mps 737 mmHg 79%
20:00 +9°C° 0.1 mm 3 mps 738 mmHg 81%
21:00 +9°C° 0.1 mm 3 mps 738 mmHg 84%
22:00 +9°C° 0.1 mm 2 mps 738 mmHg 86%
23:00 +8°C° 0 mm 2 mps 738 mmHg 87%

28 September, Monday

Time Temperature Precipitation Wind Pressure Humidity
00:00 +8°C° 0 mm 2 mps 738 mmHg 88%
01:00 +7°C° 0 mm 2 mps 738 mmHg 89%
02:00 +7°C° 0 mm 2 mps 738 mmHg 90%
03:00 +7°C° 0 mm 2 mps 738 mmHg 91%
04:00 +7°C° 0 mm 2 mps 738 mmHg 92%
05:00 +7°C° 0 mm 2 mps 738 mmHg 91%
06:00 +8°C° 0 mm 2 mps 738 mmHg 89%
07:00 +9°C° 0 mm 2 mps 738 mmHg 87%
08:00 +10°C° 0 mm 3 mps 738 mmHg 82%
09:00 +12°C° 0 mm 3 mps 738 mmHg 77%
10:00 +14°C° 0 mm 4 mps 738 mmHg 73%
11:00 +15°C° 0 mm 4 mps 738 mmHg 67%
12:00 +16°C° 0 mm 5 mps 738 mmHg 61%
13:00 +17°C° 0 mm 5 mps 738 mmHg 55%
14:00 +18°C° 0 mm 4 mps 738 mmHg 56%
15:00 +18°C° 0 mm 3 mps 738 mmHg 58%
16:00 +17°C° 0 mm 3 mps 738 mmHg 59%
17:00 +16°C° 0 mm 3 mps 738 mmHg 65%
18:00 +14°C° 0 mm 3 mps 738 mmHg 71%
19:00 +13°C° 0 mm 3 mps 739 mmHg 77%
20:00 +13°C° 0.3 mm 3 mps 739 mmHg 80%
21:00 +13°C° 0.3 mm 2 mps 739 mmHg 84%
22:00 +13°C° 0.3 mm 1 mps 739 mmHg 87%
23:00 +13°C° 0.1 mm 1 mps 739 mmHg 89%

29 September, Tuesday

Time Temperature Precipitation Wind Pressure Humidity
00:00 +13°C° 0.1 mm 1 mps 739 mmHg 90%
01:00 +13°C° 0.1 mm 2 mps 739 mmHg 91%
02:00 +12°C° 0 mm 2 mps 739 mmHg 91%
03:00 +12°C° 0 mm 2 mps 738 mmHg 92%
04:00 +12°C° 0 mm 2 mps 738 mmHg 92%
05:00 +12°C° 0 mm 2 mps 738 mmHg 90%
06:00 +12°C° 0 mm 2 mps 739 mmHg 88%
07:00 +11°C° 0 mm 3 mps 739 mmHg 87%
08:00 +12°C° 0 mm 3 mps 739 mmHg 79%
09:00 +13°C° 0 mm 3 mps 739 mmHg 72%
10:00 +14°C° 0 mm 4 mps 739 mmHg 64%
11:00 +16°C° 0 mm 3 mps 739 mmHg 61%
12:00 +17°C° 0 mm 3 mps 739 mmHg 57%
13:00 +18°C° 0 mm 3 mps 739 mmHg 54%
14:00 +17°C° 0.2 mm 3 mps 740 mmHg 57%
15:00 +17°C° 0.2 mm 3 mps 740 mmHg 59%
16:00 +16°C° 0.2 mm 2 mps 740 mmHg 62%
17:00 +15°C° 0 mm 2 mps 740 mmHg 67%
18:00 +13°C° 0 mm 1 mps 740 mmHg 72%
19:00 +12°C° 0 mm 1 mps 741 mmHg 77%
20:00 +11°C° 0 mm 1 mps 741 mmHg 78%
21:00 +11°C° 0 mm 1 mps 741 mmHg 79%
22:00 +11°C° 0 mm 1 mps 741 mmHg 81%
23:00 +10°C° 0 mm 1 mps 741 mmHg 81%
Show more